Retour au catalogue

INTELSAT 33E

ActifCommunicationsGEO
NORAD 41748·PAYLOAD· XX

Lancé Aug 24, 2016 depuis Guiana Space Centre

Loading…

TLE

FraisSource: Space-Track

Époque: Sep 14, 2026, 13:55 UTC

1 41748U 16053B   26257.58004103  .00000130  00000-0  00000-0 0  9996
2 41748   1.8005  82.8782 0023666 190.7406 313.6530  1.00223155 37140

Suivez INTELSAT 33E en temps réel avec AllMySat

Download on the App Store